sat.trackr.live / text

‹ back to catalog

RCM-1

NORAD 44322 · 2019-033A

PAYLOAD ACTIVE UNKNOWN

§ Identity

Operator
Country
CA
Launch date
2019-06-12
Launch site
AFWTR
Launch vehicle
Mass (kg)
RCS (m²)

External: N2YO · Heavens-Above · Gunter

§ Orbital elements

Epoch: 2026-09-04T07:38:24.081792Z

Period
96.48 min
Inclination
97.7601°
Eccentricity
0.0001503
Mean motion
14.92587812 rev/d
Perigee alt
588.8 km
Apogee alt
590.9 km
Semi-major
6,968.0 km
B*
5.4241e-5
RAAN
253.6478°
Arg perigee
90.3244°
Mean anomaly
326.1916°
Rev number
39,388

§ Raw data

RCM-11 44322U 19033A   26247.31833428  .00000502  00000+0  54241-4 0  99902 44322  97.7601 253.6478 0001503  90.3244 326.1916 14.92587812393889

JSON: /api/v1/satellites/44322 · /tle

For live sub-satellite position, see the globe view (requires WebGL).

§ Visibility from observer

Set your observer location to see the next 7 days of passes ≥ 10°. The values pass through the URL so the page stays shareable.

No JS? Fill the form by hand. The geolocation button needs JavaScript.